Time,TemperatureF,DewpointF,PressureIn,WindDirection,WindDirectionDegrees,WindSpeedMPH,WindSpeedGustMPH,Humidity,HourlyPrecipIn,Conditions,Clouds,dailyrainin,SolarRadiationWatts/m^2,SoftwareType,DateUTC
2013-10-21 00:13:00,38.0,34.0,-100.00,NW,307,11.0,19.0,84,0.00,,,0.02,1.000000,,2013-10-21 05:13:00,
2013-10-21 00:23:00,38.0,34.0,-100.00,NW,307,11.0,19.0,84,0.00,,,0.02,1.000000,,2013-10-21 05:23:00,
2013-10-21 00:34:00,38.0,34.0,-100.00,NW,307,11.0,19.0,84,0.00,,,0.02,1.000000,,2013-10-21 05:34:00,
2013-10-21 00:43:00,38.0,34.0,-100.00,NW,307,11.0,19.0,84,0.00,,,0.02,1.000000,,2013-10-21 05:43:00,
2013-10-21 01:12:00,36.0,27.0,-100.00,NW,311,11.0,22.0,69,0.00,,,0.02,1.000000,,2013-10-21 06:12:00,
2013-10-21 01:22:00,36.0,27.0,-100.00,NW,311,11.0,22.0,69,0.00,,,0.02,1.000000,,2013-10-21 06:22:00,
2013-10-21 01:32:00,36.0,27.0,-100.00,NW,311,11.0,22.0,69,0.00,,,0.02,1.000000,,2013-10-21 06:32:00,
2013-10-21 01:42:00,36.0,27.0,-100.00,NW,311,11.0,22.0,69,0.00,,,0.02,1.000000,,2013-10-21 06:42:00,
2013-10-21 02:12:00,35.0,23.0,-100.00,NW,317,10.0,22.0,62,0.00,,,0.02,1.000000,,2013-10-21 07:12:00,
2013-10-21 02:22:00,35.0,23.0,-100.00,NW,317,10.0,22.0,62,0.00,,,0.02,1.000000,,2013-10-21 07:22:00,
2013-10-21 02:32:00,35.0,23.0,-100.00,NW,317,10.0,22.0,62,0.00,,,0.02,1.000000,,2013-10-21 07:32:00,
2013-10-21 02:42:00,35.0,23.0,-100.00,NW,317,10.0,22.0,62,0.00,,,0.02,1.000000,,2013-10-21 07:42:00,
2013-10-21 03:12:00,34.0,22.0,-100.00,WNW,303,7.0,15.0,62,0.00,,,0.02,1.000000,,2013-10-21 08:12:00,
2013-10-21 03:22:00,34.0,22.0,-100.00,WNW,303,7.0,15.0,62,0.00,,,0.02,1.000000,,2013-10-21 08:22:00,
2013-10-21 03:32:00,34.0,22.0,-100.00,WNW,303,7.0,15.0,62,0.00,,,0.02,1.000000,,2013-10-21 08:32:00,
2013-10-21 03:42:00,34.0,22.0,-100.00,WNW,303,7.0,15.0,62,0.00,,,0.02,1.000000,,2013-10-21 08:42:00,
2013-10-21 04:11:00,35.0,22.0,-100.00,WNW,300,7.0,13.0,59,0.00,,,0.02,1.000000,,2013-10-21 09:11:00,
2013-10-21 04:22:00,35.0,22.0,-100.00,WNW,300,7.0,13.0,59,0.00,,,0.02,1.000000,,2013-10-21 09:22:00,
2013-10-21 04:33:00,35.0,22.0,-100.00,WNW,300,7.0,13.0,59,0.00,,,0.02,1.000000,,2013-10-21 09:33:00,
2013-10-21 04:43:00,35.0,22.0,-100.00,WNW,300,7.0,13.0,59,0.00,,,0.02,1.000000,,2013-10-21 09:43:00,
2013-10-21 05:13:00,35.0,23.0,-100.00,WNW,285,8.0,13.0,60,0.00,,,0.02,1.000000,,2013-10-21 10:13:00,
2013-10-21 05:23:00,35.0,23.0,-100.00,WNW,285,8.0,13.0,60,0.00,,,0.02,1.000000,,2013-10-21 10:23:00,
2013-10-21 05:33:00,35.0,23.0,-100.00,WNW,285,8.0,13.0,60,0.00,,,0.02,1.000000,,2013-10-21 10:33:00,
2013-10-21 05:43:00,35.0,23.0,-100.00,WNW,285,8.0,13.0,60,0.00,,,0.02,1.000000,,2013-10-21 10:43:00,
2013-10-21 06:12:00,35.0,23.0,-100.00,WNW,300,9.0,16.0,61,0.00,,,0.02,1.000000,,2013-10-21 11:12:00,
2013-10-21 06:22:00,35.0,23.0,-100.00,WNW,300,9.0,16.0,61,0.00,,,0.02,1.000000,,2013-10-21 11:22:00,
2013-10-21 06:33:00,35.0,23.0,-100.00,WNW,300,9.0,16.0,61,0.00,,,0.02,1.000000,,2013-10-21 11:33:00,
2013-10-21 06:42:00,35.0,23.0,-100.00,WNW,300,9.0,16.0,61,0.00,,,0.02,1.000000,,2013-10-21 11:42:00,
2013-10-21 07:12:00,34.0,24.0,-100.00,WNW,295,9.0,14.0,66,0.00,,,0.02,1.000000,,2013-10-21 12:12:00,
2013-10-21 07:22:00,34.0,24.0,-100.00,WNW,295,9.0,14.0,66,0.00,,,0.02,1.000000,,2013-10-21 12:22:00,
2013-10-21 07:32:00,34.0,24.0,-100.00,WNW,295,9.0,14.0,66,0.00,,,0.02,1.000000,,2013-10-21 12:32:00,
2013-10-21 07:42:00,34.0,24.0,-100.00,WNW,295,9.0,14.0,66,0.00,,,0.02,1.000000,,2013-10-21 12:42:00,
2013-10-21 08:22:00,34.0,21.0,-100.00,West,278,7.0,12.0,59,0.00,,,0.02,1.000000,,2013-10-21 13:22:00,
2013-10-21 08:32:00,34.0,21.0,-100.00,West,278,7.0,12.0,59,0.00,,,0.02,1.000000,,2013-10-21 13:32:00,
2013-10-21 08:42:00,34.0,21.0,-100.00,West,278,7.0,12.0,59,0.00,,,0.02,1.000000,,2013-10-21 13:42:00,
2013-10-21 09:12:00,34.0,22.0,-100.00,West,273,8.0,13.0,60,0.00,,,0.01,14.000000,,2013-10-21 14:12:00,
2013-10-21 09:22:00,34.0,22.0,-100.00,West,273,8.0,13.0,60,0.00,,,0.01,14.000000,,2013-10-21 14:22:00,
2013-10-21 09:32:00,34.0,22.0,-100.00,West,273,8.0,13.0,60,0.00,,,0.01,14.000000,,2013-10-21 14:32:00,
2013-10-21 09:42:00,34.0,22.0,-100.00,West,273,8.0,13.0,60,0.00,,,0.01,14.000000,,2013-10-21 14:42:00,
2013-10-21 10:12:00,35.0,21.0,-100.00,West,280,7.0,19.0,56,0.00,,,0.01,63.000000,,2013-10-21 15:12:00,
2013-10-21 10:21:00,35.0,21.0,-100.00,West,280,7.0,19.0,56,0.00,,,0.01,63.000000,,2013-10-21 15:21:00,
2013-10-21 10:33:00,35.0,21.0,-100.00,West,280,7.0,19.0,56,0.00,,,0.01,63.000000,,2013-10-21 15:33:00,
2013-10-21 10:43:00,35.0,21.0,-100.00,West,280,7.0,19.0,56,0.00,,,0.01,63.000000,,2013-10-21 15:43:00,
2013-10-21 11:23:00,35.0,19.0,-100.00,WNW,293,11.0,18.0,52,0.00,,,0.00,100.000000,,2013-10-21 16:23:00,
2013-10-21 11:33:00,35.0,19.0,-100.00,WNW,293,11.0,18.0,52,0.00,,,0.00,100.000000,,2013-10-21 16:33:00,
2013-10-21 11:43:00,35.0,19.0,-100.00,WNW,293,11.0,18.0,52,0.00,,,0.00,100.000000,,2013-10-21 16:43:00,
2013-10-21 12:12:00,36.0,18.0,-100.00,West,280,14.0,21.0,48,0.00,,,0.00,167.000000,,2013-10-21 17:12:00,
2013-10-21 12:22:00,36.0,18.0,-100.00,West,280,14.0,21.0,48,0.00,,,0.00,167.000000,,2013-10-21 17:22:00,
2013-10-21 12:34:00,36.0,18.0,-100.00,West,280,14.0,21.0,48,0.00,,,0.00,167.000000,,2013-10-21 17:34:00,
2013-10-21 12:43:00,36.0,18.0,-100.00,West,280,14.0,21.0,48,0.00,,,0.00,167.000000,,2013-10-21 17:43:00,
2013-10-21 13:12:00,36.0,17.0,-100.00,WNW,295,12.0,22.0,46,0.00,,,0.00,219.000000,,2013-10-21 18:12:00,
2013-10-21 13:22:00,36.0,17.0,-100.00,WNW,295,12.0,22.0,46,0.00,,,0.00,219.000000,,2013-10-21 18:22:00,
2013-10-21 13:32:00,36.0,17.0,-100.00,WNW,295,12.0,22.0,46,0.00,,,0.00,219.000000,,2013-10-21 18:32:00,
2013-10-21 13:42:00,36.0,17.0,-100.00,WNW,295,12.0,22.0,46,0.00,,,0.00,219.000000,,2013-10-21 18:42:00,
2013-10-21 14:11:00,37.0,21.0,-100.00,West,280,10.0,17.0,53,0.00,,,0.00,169.000000,,2013-10-21 19:11:00,
2013-10-21 14:22:00,37.0,21.0,-100.00,West,280,10.0,17.0,53,0.00,,,0.00,169.000000,,2013-10-21 19:22:00,
2013-10-21 14:32:00,37.0,21.0,-100.00,West,280,10.0,17.0,53,0.00,,,0.00,169.000000,,2013-10-21 19:32:00,
2013-10-21 14:42:00,37.0,21.0,-100.00,West,280,10.0,17.0,53,0.00,,,0.00,169.000000,,2013-10-21 19:42:00,
2013-10-21 15:11:00,39.0,18.0,-100.00,WNW,294,13.0,20.0,43,0.00,,,0.00,347.000000,,2013-10-21 20:11:00,
2013-10-21 15:22:00,39.0,18.0,-100.00,WNW,294,13.0,20.0,43,0.00,,,0.00,347.000000,,2013-10-21 20:22:00,
2013-10-21 15:32:00,39.0,18.0,-100.00,WNW,294,13.0,20.0,43,0.00,,,0.00,347.000000,,2013-10-21 20:32:00,
2013-10-21 15:43:00,39.0,18.0,-100.00,WNW,294,13.0,20.0,43,0.00,,,0.00,347.000000,,2013-10-21 20:43:00,
2013-10-21 16:12:00,39.0,21.0,-100.00,WNW,287,13.0,20.0,48,0.00,,,0.00,204.000000,,2013-10-21 21:12:00,
2013-10-21 16:22:00,39.0,21.0,-100.00,WNW,287,13.0,20.0,48,0.00,,,0.00,204.000000,,2013-10-21 21:22:00,
2013-10-21 16:34:00,39.0,21.0,-100.00,WNW,287,13.0,20.0,48,0.00,,,0.00,204.000000,,2013-10-21 21:34:00,
2013-10-21 16:44:00,39.0,21.0,-100.00,WNW,287,13.0,20.0,48,0.00,,,0.00,204.000000,,2013-10-21 21:44:00,
2013-10-21 17:13:00,38.0,20.0,-100.00,WNW,291,9.0,19.0,47,0.00,,,0.00,179.000000,,2013-10-21 22:13:00,
2013-10-21 17:24:00,38.0,20.0,-100.00,WNW,291,9.0,19.0,47,0.00,,,0.00,179.000000,,2013-10-21 22:24:00,
2013-10-21 17:34:00,38.0,20.0,-100.00,WNW,291,9.0,19.0,47,0.00,,,0.00,179.000000,,2013-10-21 22:34:00,
2013-10-21 17:44:00,38.0,20.0,-100.00,WNW,291,9.0,19.0,47,0.00,,,0.00,179.000000,,2013-10-21 22:44:00,
2013-10-21 18:13:00,39.0,20.0,-100.00,WNW,294,8.0,16.0,47,0.00,,,0.00,137.000000,,2013-10-21 23:13:00,
2013-10-21 18:22:00,39.0,20.0,-100.00,WNW,294,8.0,16.0,47,0.00,,,0.00,137.000000,,2013-10-21 23:22:00,
2013-10-21 18:34:00,39.0,20.0,-100.00,WNW,294,8.0,16.0,47,0.00,,,0.00,137.000000,,2013-10-21 23:34:00,
2013-10-21 18:42:00,39.0,20.0,-100.00,WNW,294,8.0,16.0,47,0.00,,,0.00,137.000000,,2013-10-21 23:42:00,
2013-10-21 19:12:00,34.0,20.0,-100.00,WNW,288,5.0,14.0,56,0.00,,,0.00,11.000000,,2013-10-22 00:12:00,
2013-10-21 19:22:00,34.0,20.0,-100.00,WNW,288,5.0,14.0,56,0.00,,,0.00,11.000000,,2013-10-22 00:22:00,
2013-10-21 19:32:00,34.0,20.0,-100.00,WNW,288,5.0,14.0,56,0.00,,,0.00,11.000000,,2013-10-22 00:32:00,
2013-10-21 19:42:00,34.0,20.0,-100.00,WNW,288,5.0,14.0,56,0.00,,,0.00,11.000000,,2013-10-22 00:42:00,
2013-10-21 20:12:00,32.0,22.0,-100.00,WSW,252,4.0,6.0,67,0.00,,,0.00,1.000000,,2013-10-22 01:12:00,
2013-10-21 20:22:00,32.0,22.0,-100.00,WSW,252,4.0,6.0,67,0.00,,,0.00,1.000000,,2013-10-22 01:22:00,
2013-10-21 20:32:00,32.0,22.0,-100.00,WSW,252,4.0,6.0,67,0.00,,,0.00,1.000000,,2013-10-22 01:32:00,
2013-10-21 20:42:00,32.0,22.0,-100.00,WSW,252,4.0,6.0,67,0.00,,,0.00,1.000000,,2013-10-22 01:42:00,
2013-10-21 21:11:00,30.0,22.0,-100.00,WSW,244,5.0,6.0,71,0.00,,,0.00,1.000000,,2013-10-22 02:11:00,
2013-10-21 21:22:00,30.0,22.0,-100.00,WSW,244,5.0,6.0,71,0.00,,,0.00,1.000000,,2013-10-22 02:22:00,
2013-10-21 21:32:00,30.0,22.0,-100.00,WSW,244,5.0,6.0,71,0.00,,,0.00,1.000000,,2013-10-22 02:32:00,
2013-10-21 21:43:00,30.0,22.0,-100.00,WSW,244,5.0,6.0,71,0.00,,,0.00,1.000000,,2013-10-22 02:43:00,
2013-10-21 22:12:00,29.0,22.0,-100.00,WSW,251,4.0,6.0,75,0.00,,,0.00,1.000000,,2013-10-22 03:12:00,
2013-10-21 22:22:00,29.0,22.0,-100.00,WSW,251,4.0,6.0,75,0.00,,,0.00,1.000000,,2013-10-22 03:22:00,
2013-10-21 22:34:00,29.0,22.0,-100.00,WSW,251,4.0,6.0,75,0.00,,,0.00,1.000000,,2013-10-22 03:34:00,
2013-10-21 22:45:00,29.0,22.0,-100.00,WSW,251,4.0,6.0,75,0.00,,,0.00,1.000000,,2013-10-22 03:45:00,
2013-10-21 23:13:00,26.0,22.0,-100.00,West,270,3.0,4.0,85,0.00,,,0.00,1.000000,,2013-10-22 04:13:00,
2013-10-21 23:25:00,26.0,22.0,-100.00,West,270,3.0,4.0,85,0.00,,,0.00,1.000000,,2013-10-22 04:25:00,
2013-10-21 23:34:00,26.0,22.0,-100.00,West,270,3.0,4.0,85,0.00,,,0.00,1.000000,,2013-10-22 04:34:00,
2013-10-21 23:43:00,26.0,22.0,-100.00,West,270,3.0,4.0,85,0.00,,,0.00,1.000000,,2013-10-22 04:43:00,